Facebook Twitter
Globalmodell
Satellitenbild

Wetterstation Hurguada

aktuelles Wetter
  Temperatur Wetter Niederschlag Luftdruck Wind
Mi, 11:00 Uhr 32° 0.0 mm 1011 hPa 9 km/h NO
Mi, 08:00 Uhr 27° 0.0 mm 1011 hPa 4 km/h W
Mi, 05:00 Uhr 20° 0 mm 1011 hPa 0 km/h W
Mi, 02:00 Uhr 21° 0 mm 1010 hPa 2 km/h NW
Di, 23:00 Uhr 24° 0 mm 1011 hPa 4 km/h N
Di, 20:00 Uhr 27° 0 mm 1012 hPa 0 km/h N
Di, 17:00 Uhr 31° 0 mm 1012 hPa 8 km/h NO
Di, 14:00 Uhr 33° 0 mm 1013 hPa 8 km/h NO
Di, 11:00 Uhr 29° 0 mm 1014 hPa 13 km/h N
Di, 08:00 Uhr 25° 0.0 mm 1014 hPa 15 km/h N
Di, 05:00 Uhr 21° 0 mm 1013 hPa 13 km/h NW
Di, 02:00 Uhr 23° 0 mm 1012 hPa 15 km/h W
Mo, 23:00 Uhr 24° 0 mm 1013 hPa 5 km/h NW
Mo, 20:00 Uhr 27° 0.0 mm 1011 hPa 9 km/h NW
Mo, 17:00 Uhr 29° 0 mm 1010 hPa 30 km/h N
Mo, 14:00 Uhr 31° 0 mm 1011 hPa 26 km/h N
Mo, 11:00 Uhr 29° 0 mm 1012 hPa 35 km/h N
Mo, 08:00 Uhr 25° 0 mm 1010 hPa 33 km/h NO
Mo, 05:00 Uhr 22° 0 mm 1011 hPa 37 km/h NW
Mo, 02:00 Uhr 24° 0 mm 1011 hPa 28 km/h W

Alle Zeitangaben MESZ